This is the latest recevied weather packets stored in our database for station/object KC1TWD. If no packets are shown the sender has not sent any weather packets the latest 10 day(s).
| Time | Temp. | Humidity | Pressure | Rain* | Wind** | Luminosity | Snow |
|---|---|---|---|---|---|---|---|
| 1777951689 | 14.44° C | 59% | 1008.3 hPa | 0 mm | - | - | - |
| 1777951385 | 14.44° C | 59% | 1008.5 hPa | 0 mm | - | - | - |
| 1777951082 | 14.44° C | 59% | 1008.4 hPa | 0 mm | - | - | - |
| 1777950778 | 14.44° C | 60% | 1008.4 hPa | 0 mm | - | - | - |
| 1777950477 | 14.44° C | 59% | 1008.4 hPa | 0 mm | - | - | - |
| 1777950172 | 14.44° C | 59% | 1008.5 hPa | 0 mm | - | - | - |
| 1777949867 | 15° C | 57% | 1008.5 hPa | 0 mm | - | - | - |
| 1777949566 | 15° C | 58% | 1008.5 hPa | 0 mm | - | - | - |
| 1777949264 | 15° C | 57% | 1008.4 hPa | 0 mm | - | - | - |
| 1777948961 | 15° C | 55% | 1008.6 hPa | 0 mm | - | - | - |
| 1777948658 | 14.44° C | 56% | 1008.4 hPa | 0 mm | - | - | - |
| 1777948355 | 14.44° C | 57% | 1008.4 hPa | 0 mm | - | - | - |
| 1777948052 | 14.44° C | 56% | 1008.4 hPa | 0 mm | - | - | - |
| 1777947749 | 13.89° C | 57% | 1008.3 hPa | 0 mm | - | - | - |
| 1777947446 | 13.89° C | 58% | 1008.2 hPa | 0 mm | - | - | - |
| 1777947143 | 13.89° C | 58% | 1008.3 hPa | 0 mm | - | - | - |
| 1777946838 | 13.33° C | 60% | 1008.2 hPa | 0 mm | - | - | - |
| 1777946534 | 13.33° C | 57% | 1008.3 hPa | 0 mm | - | - | - |
| 1777946232 | 13.33° C | 58% | 1008.1 hPa | 0 mm | - | - | - |
| 1777945928 | 13.89° C | 60% | 1008.2 hPa | 0 mm | - | - | - |
| 1777945626 | 13.33° C | 58% | 1008.1 hPa | 0 mm | - | - | - |
| 1777945324 | 13.33° C | 59% | 1008.1 hPa | 0 mm | - | - | - |
| 1777945020 | 13.33° C | 58% | 1008.1 hPa | 0 mm | - | - | - |
| 1777944717 | 13.33° C | 58% | 1007.9 hPa | 0 mm | - | - | - |
| 1777944415 | 13.33° C | 60% | 1007.8 hPa | 0 mm | - | - | - |
* Rain latest hour (hover to see other rain measurements)
** Current wind speed in m/s (hover to see current wind gust speed)